EW2112 Weather Reports


time (UTC)temp
C
wind
direction
speed
KPH
gust
KPH
rain 1hr
cm
rain 24hr
cm
rain mn
cm
humidity
%
barometer
mb
20260510044510 22 90 4.8 12.9 0.00 0.00 0.00 56 1023.7
20260510043017 22 93 3.2 12.9 0.00 0.00 0.00 55 1023.6
20260510041506 23 113 4.8 12.9 0.00 0.00 0.00 52 1023.6
20260510040006 23 158 4.8 9.7 0.00 0.00 0.00 49 1023.6
20260510034505 23 112 3.2 6.4 0.00 0.00 0.00 50 1023.7
20260510033004 23 127 4.8 14.5 0.00 0.00 0.00 49 1023.7
20260510031503 23 110 1.6 11.3 0.00 0.00 0.00 52 1023.8
20260510030003 22 100 0.0 9.7 0.00 0.00 0.00 51 1023.9
20260510024612 22 159 1.6 9.7 0.00 0.00 0.00 53 1024.1
20260510023101 22 138 4.8 11.3 0.00 0.00 0.00 52 1024.3
20260510021556 22 168 1.6 9.7 0.00 0.00 0.00 54 1024.6
20260510020052 21 194 1.6 8.0 0.00 0.00 0.00 55 1024.8
20260510014608 21 207 3.2 9.7 0.00 0.00 0.00 58 1025.0
20260510013057 20 254 1.6 8.0 0.00 0.00 0.00 58 1025.2
20260510011539 20 236 0.0 4.8 0.00 0.00 0.00 60 1025.3
20260510010035 19 292 1.6 6.4 0.00 0.00 0.00 62 1025.5
20260510004529 18 308 3.2 6.4 0.00 0.00 0.00 64 1025.7
20260510003028 17 311 0.0 6.4 0.00 0.00 0.00 66 1025.8
20260510001522 17 260 3.2 6.4 0.00 0.00 0.00 67 1025.7
20260510000021 16 213 0.0 4.8 0.00 0.00 0.00 71 1025.6
20260509234515 15 213 1.6 6.4 0.00 0.00 0.00 72 1025.5
20260509233010 15 292 3.2 6.4 0.00 0.00 0.00 76 1025.4
20260509231507 13 284 0.0 4.8 0.00 0.00 0.00 81 1025.5
20260509230003 13 284 0.0 4.8 0.00 0.00 0.00 82 1025.6
20260509224558 12 351 3.2 4.8 0.00 0.00 0.00 86 1025.6
20260509223055 11 26 0.0 4.8 0.00 0.00 0.00 89 1025.5
20260509221550 11 26 1.6 4.8 0.00 0.00 0.00 91 1025.4
20260509220047 10 26 0.0 3.2 0.00 0.00 0.00 92 1025.3
20260509214543 10 30 3.2 6.4 0.00 0.00 0.00 93 1025.2
20260509213040 9 36 3.2 6.4 0.00 0.00 0.00 94 1025.1
20260509211537 8 106 0.0 0.0 0.00 0.00 0.00 93 1024.8
20260509210047 8 106 0.0 0.0 0.00 0.00 0.00 93 1024.7
20260509204532 8 106 0.0 1.6 0.00 0.00 0.00 92 1024.5
20260509203031 8 106 0.0 1.6 0.00 0.00 0.00 92 1024.2
20260509201529 8 113 0.0 1.6 0.00 0.00 0.00 92 1024.1
20260509200030 9 113 0.0 1.6 0.00 0.00 0.00 92 1023.9
20260509194526 9 113 0.0 4.8 0.00 0.00 0.00 93 1023.6
20260509193022 8 119 1.6 3.2 0.00 0.00 0.00 93 1023.4
20260509191521 8 120 1.6 4.8 0.00 0.00 0.00 93 1023.3
20260509190021 8 128 0.0 0.0 0.00 0.00 0.00 93 1023.1
20260509184524 8 128 0.0 0.0 0.00 0.00 0.00 92 1023.0
20260509183016 8 128 0.0 0.0 0.00 0.00 0.00 92 1023.0
20260509181514 8 128 0.0 0.0 0.00 0.00 0.00 91 1022.9
20260509180011 8 128 0.0 0.0 0.00 0.00 0.00 91 1022.8
20260509174510 8 128 0.0 0.0 0.00 0.00 0.00 91 1022.7
20260509173026 8 128 0.0 0.0 0.00 0.00 0.00 91 1022.6
20260509171521 8 128 0.0 0.0 0.00 0.00 0.00 91 1022.6
20260509170012 9 128 0.0 0.0 0.00 0.00 0.00 91 1022.6
20260509164504 9 128 0.0 0.0 0.00 0.00 0.00 90 1022.6
20260509163003 10 128 0.0 0.0 0.00 0.00 0.00 90 1022.5
20260509161503 10 128 0.0 1.6 0.00 0.00 0.00 91 1022.6
20260509160002 10 128 0.0 3.2 0.00 0.00 0.00 92 1022.6
20260509154600 9 128 0.0 0.0 0.00 0.00 0.00 90 1022.6
20260509153100 9 128 0.0 0.0 0.00 0.00 0.00 90 1022.7
20260509151617 10 128 0.0 0.0 0.00 0.00 0.00 90 1022.7
20260509150056 10 128 0.0 0.0 0.00 0.00 0.00 89 1022.7
20260509144555 10 128 0.0 0.0 0.00 0.00 0.00 89 1022.6
20260509143103 10 128 0.0 0.0 0.00 0.00 0.00 89 1022.6
20260509141553 10 128 0.0 0.0 0.00 0.00 0.00 89 1022.5
20260509140049 10 128 0.0 0.0 0.00 0.00 0.00 88 1022.6
20260509134548 10 128 0.0 0.0 0.00 0.00 0.00 88 1022.5
20260509133047 10 128 0.0 0.0 0.00 0.00 0.00 88 1022.5
20260509131558 10 128 0.0 0.0 0.00 0.00 0.00 87 1022.5
20260509130117 10 128 0.0 0.0 0.00 0.00 0.00 87 1022.6
20260509124546 11 128 0.0 0.0 0.00 0.00 0.00 86 1022.5
20260509123116 11 128 0.0 0.0 0.00 0.00 0.00 86 1022.6
20260509121548 11 128 0.0 0.0 0.00 0.00 0.00 85 1022.6
20260509120049 11 128 0.0 1.6 0.00 0.00 0.00 85 1022.7
20260509114611 11 128 0.0 0.0 0.00 0.00 0.00 85 1022.6
20260509113045 11 128 0.0 0.0 0.00 0.00 0.00 84 1022.6
20260509111541 11 128 0.0 0.0 0.00 0.00 0.00 83 1022.5
20260509110044 12 128 0.0 0.0 0.00 0.00 0.00 83 1022.5
20260509104537 12 128 0.0 0.0 0.00 0.00 0.00 81 1022.5
20260509103035 12 128 0.0 0.0 0.00 0.00 0.00 81 1022.4
20260509101550 12 128 0.0 0.0 0.00 0.00 0.00 80 1022.2
20260509100031 13 128 0.0 0.0 0.00 0.00 0.00 78 1022.1
20260509094533 13 128 0.0 0.0 0.00 0.00 0.00 77 1022.0
20260509093029 13 128 0.0 0.0 0.00 0.00 0.00 76 1021.9
20260509091531 14 128 0.0 0.0 0.00 0.00 0.00 74 1021.7
20260509090026 15 128 0.0 0.0 0.00 0.00 0.00 72 1021.5
20260509084528 15 128 0.0 0.0 0.00 0.00 0.00 70 1021.4
20260509083025 16 128 0.0 0.0 0.00 0.00 0.00 68 1021.1
20260509081525 16 128 0.0 0.0 0.00 0.00 0.00 66 1020.9
20260509080024 16 128 0.0 1.6 0.00 0.00 0.00 64 1020.7
20260509074523 17 128 0.0 1.6 0.00 0.00 0.00 62 1020.5
20260509073025 17 128 0.0 4.8 0.00 0.00 0.00 60 1020.4
20260509071523 18 144 0.0 4.8 0.00 0.00 0.00 58 1020.2
20260509070022 18 138 1.6 11.3 0.00 0.00 0.00 56 1020.0
20260509064522 20 111 1.6 8.0 0.00 0.00 0.00 54 1019.8
20260509063027 20 109 1.6 8.0 0.00 0.00 0.00 52 1019.7
20260509061522 21 115 4.8 14.5 0.00 0.00 0.00 50 1019.4
20260509060019 21 111 4.8 11.3 0.00 0.00 0.00 48 1019.3
20260509054521 21 110 1.6 11.3 0.00 0.00 0.00 48 1019.1
20260509053018 22 158 8.0 16.1 0.00 0.00 0.00 46 1019.0
20260509051517 22 155 3.2 12.9 0.00 0.00 0.00 40 1018.9
20260509050024 23 334 1.6 8.0 0.00 0.00 0.00 39 1018.9